DM1AS-13 Weather Reports


time (UTC)temp
C
wind
direction
speed
KPH
gust
KPH
rain 1hr
cm
rain 24hr
cm
rain mn
cm
humidity
%
barometer
mb
20260507171916 10 0.0 0.0 0.00 0.03 0.00 81 1018.4
20260507170916 10 0.0 0.0 0.00 0.03 0.00 81 1018.3
20260507165916 10 0.0 0.0 0.00 0.03 0.00 80 1018.2
20260507164916 11 0.0 0.0 0.00 0.03 0.00 80 1018.1
20260507163915 11 0.0 0.0 0.00 0.03 0.00 78 1018.1
20260507162916 11 0.0 0.0 0.00 0.03 0.00 78 1018.1
20260507161915 11 0.0 0.0 0.00 0.03 0.00 77 1018.0
20260507160918 11 0.0 1.6 0.00 0.03 0.00 76 1018.1
20260507155917 11 158 1.6 3.2 0.00 0.03 0.00 76 1018.0
20260507154918 11 0.0 0.0 0.00 0.03 0.00 76 1018.0
20260507153938 11 0.0 0.0 0.00 0.03 0.00 76 1017.8
20260507152917 11 0.0 0.0 0.00 0.03 0.00 76 1017.7
20260507151917 11 0.0 1.6 0.00 0.03 0.00 75 1017.7
20260507150917 11 0.0 1.6 0.00 0.03 0.00 75 1017.6
20260507145917 11 270 1.6 1.6 0.00 0.03 0.00 75 1017.5
20260507144917 11 0.0 1.6 0.00 0.03 0.00 75 1017.4
20260507143917 11 0.0 1.6 0.00 0.03 0.00 75 1017.4
20260507142915 11 0.0 1.6 0.00 0.03 0.00 76 1017.4
20260507141958 11 0.0 1.6 0.00 0.03 0.00 76 1017.3
20260507140917 11 270 1.6 1.6 0.00 0.03 0.00 77 1017.3
20260507135917 11 0.0 1.6 0.00 0.03 0.00 76 1017.2
20260507134917 11 270 1.6 4.8 0.00 0.03 0.00 77 1017.2
20260507133917 11 338 1.6 3.2 0.00 0.03 0.00 77 1017.1
20260507132917 11 203 1.6 6.4 0.00 0.03 0.00 77 1017.1
20260507131917 10 0.0 1.6 0.00 0.03 0.00 76 1017.1
20260507130917 10 0.0 1.6 0.00 0.03 0.00 77 1017.0
20260507125917 10 248 1.6 3.2 0.00 0.03 0.00 78 1017.0
20260507124937 10 248 1.6 1.6 0.00 0.03 0.00 78 1017.0
20260507123917 10 135 1.6 3.2 0.00 0.03 0.00 79 1016.8
20260507122917 10 293 1.6 1.6 0.00 0.03 0.00 79 1016.8
20260507121917 10 180 1.6 4.8 0.00 0.03 0.00 79 1016.8
20260507120917 10 293 1.6 4.8 0.00 0.03 0.00 80 1016.8
20260507115917 10 338 1.6 3.2 0.00 0.03 0.00 80 1016.8
20260507114917 9 248 1.6 6.4 0.00 0.03 0.00 80 1016.7
20260507113917 9 270 3.2 8.0 0.00 0.03 0.00 80 1016.7
20260507112917 9 315 1.6 1.6 0.00 0.03 0.00 80 1016.5
20260507111917 9 0.0 1.6 0.00 0.03 0.00 80 1016.6
20260507110917 10 293 3.2 6.4 0.00 0.03 0.00 81 1016.5
20260507105917 9 270 3.2 3.2 0.00 0.03 0.00 81 1016.6
20260507104937 9 270 1.6 3.2 0.00 0.03 0.00 81 1016.5
20260507103917 9 180 3.2 6.4 0.00 0.03 0.00 82 1016.5
20260507102917 9 23 1.6 3.2 0.00 0.03 0.00 82 1016.4
20260507101917 9 315 3.2 3.2 0.00 0.03 0.00 82 1016.3
20260507100917 9 315 1.6 3.2 0.00 0.03 0.00 81 1016.2
20260507095917 10 270 1.6 3.2 0.00 0.03 0.00 81 1016.1
20260507094917 10 293 4.8 8.0 0.00 0.03 0.00 81 1016.0
20260507093917 10 225 3.2 3.2 0.00 0.05 0.00 81 1015.8
20260507092917 9 45 1.6 3.2 0.00 0.05 0.00 82 1015.6
20260507091917 9 68 1.6 6.4 0.00 0.05 0.00 82 1015.5
20260507090917 9 338 1.6 3.2 0.00 0.08 0.00 82 1015.5
20260507085917 9 338 1.6 1.6 0.00 0.10 0.00 82 1015.4
20260507084917 9 180 1.6 3.2 0.00 0.13 0.00 82 1015.2
20260507083917 9 225 3.2 6.4 0.00 0.15 0.00 82 1015.1
20260507082916 8 45 3.2 8.0 0.00 0.15 0.00 82 1015.1
20260507081916 9 0.0 1.6 0.00 0.15 0.00 82 1014.9
20260507080917 8 0.0 1.6 0.00 0.18 0.00 83 1014.9
20260507075917 8 315 1.6 3.2 0.00 0.23 0.00 83 1014.8
20260507074917 8 203 1.6 6.4 0.00 0.23 0.00 83 1014.7
20260507073917 8 158 1.6 3.2 0.00 0.28 0.00 84 1014.6
20260507072916 8 293 1.6 3.2 0.00 0.33 0.00 84 1014.5
20260507071936 8 338 1.6 6.4 0.00 0.38 0.00 84 1014.4
20260507070916 8 315 1.6 1.6 0.00 0.43 0.00 85 1014.3
20260507065916 8 248 3.2 6.4 0.00 0.48 0.00 85 1014.4
20260507064916 8 0.0 3.2 0.00 0.51 0.00 85 1014.3
20260507063916 8 0.0 1.6 0.00 0.51 0.00 85 1014.3
20260507062917 8 293 1.6 3.2 0.00 0.51 0.00 86 1014.2
20260507061916 8 293 1.6 3.2 0.00 0.53 0.00 85 1014.0
20260507060916 8 0.0 1.6 0.00 0.53 0.00 85 1013.9
20260507055917 8 315 1.6 1.6 0.00 0.53 0.00 86 1013.7
20260507054916 8 293 3.2 6.4 0.00 0.53 0.00 86 1013.6
20260507053916 8 45 1.6 4.8 0.00 0.56 0.00 86 1013.5
20260507052916 8 45 1.6 1.6 0.00 0.56 0.00 86 1013.4
20260507051916 8 248 1.6 6.4 0.00 0.58 0.00 86 1013.3
20260507050916 8 225 3.2 6.4 0.00 0.58 0.00 86 1013.3
20260507045916 8 293 1.6 3.2 0.00 0.61 0.00 86 1013.1
20260507044916 8 315 1.6 3.2 0.00 0.61 0.00 86 1013.0
20260507043916 8 225 1.6 3.2 0.00 0.61 0.00 86 1013.0
20260507042916 8 270 3.2 6.4 0.00 0.61 0.00 86 1012.8
20260507041916 8 135 1.6 4.8 0.00 0.64 0.00 86 1012.9
20260507040916 8 270 3.2 9.7 0.00 0.64 0.00 86 1012.8
20260507035916 8 338 1.6 1.6 0.00 0.71 0.00 86 1012.5
20260507034916 8 248 1.6 3.2 0.00 0.81 0.00 86 1012.5
20260507033916 7 248 3.2 6.4 0.00 0.97 0.00 86 1012.4
20260507032936 7 293 1.6 3.2 0.00 1.12 0.00 86 1012.3
20260507031916 7 0 1.6 3.2 0.00 1.19 0.00 86 1012.3
20260507030916 7 270 3.2 8.0 0.00 1.19 0.00 86 1012.4
20260507025916 7 315 1.6 3.2 0.00 1.19 0.00 86 1012.3
20260507024916 7 0.0 1.6 0.00 1.19 0.00 86 1012.1
20260507023916 7 180 1.6 1.6 0.00 1.19 0.00 86 1012.3
20260507022916 7 0.0 1.6 0.00 1.19 0.00 86 1012.3
20260507021916 8 270 1.6 3.2 0.00 1.22 0.00 86 1012.1
20260507020916 8 0.0 0.0 0.00 1.22 0.00 86 1012.0
20260507015956 8 0 1.6 3.2 0.00 1.22 0.00 86 1011.8
20260507014916 8 338 1.6 3.2 0.00 1.22 0.00 86 1011.8
20260507013916 7 0.0 1.6 0.00 1.22 0.00 86 1011.8
20260507012916 7 0.0 1.6 0.00 1.22 0.00 86 1011.8
20260507011916 7 0.0 1.6 0.00 1.24 0.00 86 1011.7
20260507010936 7 68 1.6 3.2 0.00 1.24 0.00 86 1011.7
20260507005916 7 0.0 1.6 0.00 1.27 0.00 86 1011.6
20260507004936 7 270 3.2 3.2 0.00 1.27 0.00 86 1011.5
20260507003916 8 270 3.2 6.4 0.00 1.27 0.00 86 1011.1
20260507002916 8 0.0 0.0 0.00 1.27 0.00 86 1011.0
20260507001916 8 270 1.6 1.6 0.00 1.27 0.00 86 1011.1
20260507000916 8 0.0 1.6 0.00 1.30 0.00 86 1011.1
20260506235916 8 293 1.6 4.8 0.00 1.30 0.00 86 1011.2
20260506234916 8 45 3.2 8.0 0.00 1.30 0.00 86 1011.0
20260506233916 8 0.0 0.0 0.00 1.30 0.00 86 1011.0
20260506232916 8 180 1.6 3.2 0.00 1.30 0.00 86 1011.1
20260506231915 8 338 1.6 3.2 0.00 1.30 0.00 86 1011.1
20260506230915 8 338 3.2 8.0 0.00 1.30 0.00 85 1011.2
20260506225936 9 315 4.8 8.0 0.00 1.32 0.00 85 1011.0
20260506224915 10 338 1.6 3.2 0.00 1.32 0.00 85 1010.8
20260506223916 10 338 3.2 4.8 0.00 1.32 0.00 85 1010.7
20260506222936 10 270 1.6 1.6 0.00 1.32 0.00 85 1010.6
20260506221916 10 338 3.2 4.8 0.00 1.32 0.00 84 1010.5
20260506220915 10 0 1.6 1.6 0.00 1.32 0.00 85 1010.4
20260506215916 11 135 4.8 9.7 0.00 1.32 1.32 85 1010.2
20260506214916 11 293 1.6 3.2 0.00 1.32 1.32 85 1010.3
20260506213916 11 0.0 1.6 0.00 1.32 1.32 85 1010.3
20260506212916 11 270 1.6 3.2 0.00 1.32 1.32 85 1010.4
20260506211916 11 90 1.6 3.2 0.00 1.32 1.32 86 1010.3
20260506210916 11 270 6.4 9.7 0.00 1.32 1.32 86 1010.4
20260506210008 11 0.0 0.0 0.00 1.32 1.32 86 1010.2
20260506205832 11 0.0 0.0 0.00 1.32 1.32 86 1010.2
20260506205716 11 315 1.6 1.6 0.00 1.32 1.32 86 1010.2
20260506204716 11 293 1.6 1.6 0.00 1.32 1.32 86 1010.1
20260506203716 11 293 1.6 3.2 0.00 1.32 1.32 86 1010.1
20260506202812 11 0.0 0.0 0.00 1.32 1.32 86 1010.1
20260506202650 11 0 3.2 3.2 0.00 1.32 1.32 86 1010.1
20260506202509 11 0.0 0.0 0.00 1.32 1.32 86 1010.1
20260506202335 11 0.0 0.0 0.00 1.32 1.32 86 1010.1
20260506202016 11 315 1.6 3.2 0.00 1.32 1.32 87 1010.0
20260506201112 11 270 6.4 9.7 0.00 1.32 1.32 87 1010.1
20260506200909 11 0.0 0.0 0.00 1.32 1.32 87 1010.0
20260506200733 11 0.0 0.0 0.00 1.32 1.32 87 1010.0
20260506200636 11 0.0 0.0 0.00 1.32 1.32 87 1010.0
20260506200433 11 293 4.8 4.8 0.00 1.32 1.32 87 1009.9
20260506195716 11 270 3.2 3.2 0.00 1.32 1.32 87 1009.9
20260506194716 11 270 1.6 1.6 0.00 1.32 1.32 87 1009.9
20260506193716 11 225 1.6 3.2 0.00 1.32 1.32 87 1009.8
20260506192736 11 0.0 1.6 0.00 1.32 1.32 87 1009.6
20260506191716 11 293 1.6 3.2 0.00 1.32 1.32 87 1009.7
20260506190736 11 0.0 0.0 0.00 1.32 1.32 87 1009.7
20260506185822 11 338 4.8 6.4 0.00 1.32 1.32 87 1009.6
20260506184916 11 293 4.8 6.4 0.00 1.32 1.32 87 1009.4
20260506183915 11 0.0 1.6 0.00 1.32 1.32 87 1009.5
20260506182916 11 338 1.6 4.8 0.00 1.32 1.32 87 1009.5
20260506181916 11 0.0 1.6 0.03 1.32 1.32 87 1009.3
20260506180915 11 225 1.6 1.6 0.03 1.32 1.32 87 1009.2
20260506175916 12 0.0 1.6 0.03 1.32 1.32 87 1009.0
20260506174916 12 293 1.6 3.2 0.03 1.32 1.32 87 1009.0
20260506173936 12 0.0 1.6 0.03 1.32 1.32 87 1008.8
20260506172915 12 293 3.2 6.4 0.03 1.32 1.32 87 1008.8